Montgomery, NY

6:33 AM EST on December 18, 2017 (GMT -0500)
Orange County

Weather History for KMGJ - August, 2014

Change the Weather History Date:

Wednesday, August 13, 2014

  Actual Average (KSWF) Record (KSWF)
Temperature  
Mean Temperature 73 °F -  
Max Temperature 81 °F 80 °F 96 °F (2002)
Min Temperature 64 °F 61 °F 48 °F (1985)
Cooling Degree Days 8    
Growing Degree Days 23 (Base 50)    
Moisture  
Dew Point 64 °F    
Average Humidity 80    
Maximum Humidity 96    
Minimum Humidity 54    
Precipitation  
Precipitation 0.48 in - - ()
Sea Level Pressure  
Sea Level Pressure 29.76 in    
Wind  
Wind Speed 8 mph (NE)    
Max Wind Speed 16 mph    
Max Gust Speed 26 mph    
Visibility 8 miles    
Events Rain    
Averages and records for this station are not official NWS values.
T = Trace of Precipitation, MM = Missing Value Source: NWS Daily Summary

Daily Weather History Graph

Daily Weather History Graph

Search for Another Location

Airport or City:

Trip Planner

Search our weather history database for the weather conditions in past years. The results will help you decide how hot, cold, wet, or windy it might be!

Date:

Astronomy

Aug. 13, 2014 Rise Set
Actual Time 6:03 AM EDT 7:59 PM EDT
Civil Twilight 5:33 AM EDT 8:29 PM EDT
Nautical Twilight 4:57 AM EDT 9:05 PM EDT
Astronomical Twilight 4:17 AM EDT 9:45 PM EDT
Moon 9:39 PM EDT (8/13) 9:32 AM EDT (8/13)
Length of Visible Light 14h 55m
Length of Day
13h 55m
Waning Gibbous, 88% of the Moon is Illuminated
Aug 13
Waning Gibbous
Aug 17
Last Quarter
Aug 25
New
Sep 2
First Quarter
Sep 8
Full

Hourly Weather History & Observations

Time (EDT) Temp. Heat Index Dew Point Humidity Pressure Visibility Wind Dir Wind Speed Gust Speed Precip Events Conditions
12:17 AM 72.0 °F - 64.0 °F 76% 29.88 in 10.0 mi South 8.1 mph - N/A   Overcast
12:50 AM 71.6 °F - 62.6 °F 73% 29.87 in 10.0 mi SE 10.4 mph - N/A   Overcast
12:54 AM 72.0 °F - 63.0 °F 73% 29.87 in 10.0 mi South 11.5 mph 21.9 mph N/A   Overcast
1:01 AM 72.0 °F - 62.1 °F 71% 29.87 in 10.0 mi SSE 16.1 mph 25.3 mph N/A   Overcast
1:54 AM 70.0 °F - 61.0 °F 73% 29.84 in 10.0 mi SE 11.5 mph 19.6 mph 0.00 in   Overcast
2:22 AM 70.0 °F - 61.0 °F 73% 29.83 in 10.0 mi ESE 10.4 mph - N/A   Overcast
2:54 AM 69.1 °F - 61.0 °F 75% 29.83 in 10.0 mi ESE 3.5 mph - N/A   Overcast
3:52 AM 68.0 °F - 62.6 °F 83% 29.80 in 10.0 mi ENE 4.6 mph - 0.00 in   Overcast
3:54 AM 69.1 °F - 63.0 °F 81% 29.79 in 10.0 mi ENE 4.6 mph - 0.00 in   Overcast
4:41 AM 69.1 °F - 64.0 °F 84% 29.78 in 10.0 mi ESE 11.5 mph - N/A   Overcast
4:54 AM 70.0 °F - 64.0 °F 81% 29.78 in 10.0 mi SE 8.1 mph - N/A   Overcast
5:15 AM 69.1 °F - 64.0 °F 84% 29.79 in 10.0 mi SE 9.2 mph - N/A   Overcast
5:54 AM 69.1 °F - 64.0 °F 84% 29.79 in 10.0 mi Calm Calm - N/A   Overcast
6:12 AM 69.1 °F - 64.0 °F 84% 29.80 in 10.0 mi NE 3.5 mph - 0.00 in Rain Light Rain
6:35 AM 68.0 °F - 64.0 °F 87% 29.78 in 1.8 mi East 10.4 mph - 0.08 in Rain Heavy Rain
6:46 AM 66.9 °F - 64.0 °F 90% 29.78 in 1.8 mi ENE 8.1 mph - 0.17 in Rain Heavy Rain
6:50 AM 66.2 °F - 64.4 °F 94% 29.78 in 1.0 mi ENE 4.6 mph - 0.28 in Rain Heavy Rain
6:54 AM 66.0 °F - 64.9 °F 96% 29.78 in 0.8 mi East 5.8 mph - 0.37 in Rain Heavy Rain
7:08 AM 66.0 °F - 64.9 °F 96% 29.79 in 1.2 mi NW 6.9 mph - 0.16 in Rain Heavy Rain
7:19 AM 66.0 °F - 64.9 °F 96% 29.78 in 1.8 mi North 4.6 mph - 0.21 in Rain Heavy Rain
7:28 AM 66.0 °F - 64.9 °F 96% 29.78 in 3.0 mi NNE 6.9 mph - 0.23 in Rain Rain
9:34 AM 71.1 °F - 66.0 °F 84% 29.74 in 10.0 mi NNE 11.5 mph - N/A   Overcast
10:28 AM 72.0 °F - 66.0 °F 81% 29.72 in 10.0 mi NNE 9.2 mph - N/A   Overcast
11:10 AM 73.0 °F - 64.9 °F 76% 29.72 in 10.0 mi NNE 10.4 mph - N/A   Overcast
11:54 AM 73.9 °F - 66.0 °F 76% 29.71 in 10.0 mi NNE 8.1 mph - N/A   Overcast
12:54 PM 72.0 °F - 66.0 °F 81% 29.70 in 10.0 mi NNW 6.9 mph - N/A   Overcast
1:54 PM 75.9 °F - 66.0 °F 71% 29.68 in 10.0 mi West 5.8 mph - N/A   Overcast
2:54 PM 75.0 °F - 64.0 °F 69% 29.67 in 10.0 mi WNW 10.4 mph 20.7 mph 0.00 in Rain Light Rain
3:54 PM 80.1 °F 81.2 °F 62.1 °F 54% 29.66 in 10.0 mi NW 9.2 mph - 0.00 in   Mostly Cloudy
4:54 PM 79.0 °F - 62.1 °F 56% 29.65 in 10.0 mi NW 5.8 mph - N/A   Clear
5:54 PM 77.0 °F - 62.1 °F 60% 29.67 in 10.0 mi NW 11.5 mph - N/A   Scattered Clouds
6:13 PM 73.9 °F - 64.0 °F 71% 29.69 in 1.8 mi WNW 9.2 mph 26.5 mph 0.10 in Rain Heavy Rain
6:22 PM 72.0 °F - 66.0 °F 81% 29.69 in 4.0 mi WNW 5.8 mph - 0.11 in Rain Light Rain
6:54 PM 73.0 °F - 68.0 °F 84% 29.69 in 10.0 mi West 5.8 mph - 0.11 in   Mostly Cloudy
7:54 PM 69.1 °F - 66.9 °F 93% 29.72 in 10.0 mi Calm Calm - N/A   Scattered Clouds
8:54 PM 68.0 °F - 63.0 °F 84% 29.74 in 10.0 mi WNW 5.8 mph - N/A   Scattered Clouds
9:54 PM 64.0 °F - 62.1 °F 93% 29.76 in 10.0 mi WSW 6.9 mph - N/A   Scattered Clouds